Location: Bishopstone
(51.0167°N, 1.9000°W)
Time: 19:25:37
(UTC+00:00)

DMSP B5D2-2 - Pass Details

Date: 16 September 2019
Orbit: 791 x 805 km, 98.4° (Epoch: 16 October)

Event Time Altitude Azimuth Distance (km) Brightness Sun altitude
Rises 20:52:00 0° 15° (NNE) 3,333 7.6 -22.9°
Reaches altitude 10° 20:54:20 10° 16° (NNE) 2,399 6.8 -23.2°
Maximum altitude 20:59:40 84° 105° (ESE) 818 4.0 -23.9°
Enters shadow 21:01:30 43° 190° (S) 1,126 4.6 -24.1°
